Regional Weather Roundup
Issued by NWS

Home | Current Version | Previous Version | Text Only | Print | Product List | Glossary On
Versions: 1 2 3 4 5 6 7 8 9 10 11 12 13 14 15 16 17 18 19 20 21 22 23 24 25 26 27 28 29 30 31 32 33 34 35 36 37 38 39 40 41 42 43 44 45 46 47 48 49 50
000
ASUS43 KOAX 301302
RWRNE
WEATHER ROUNDUP FOR NEBRASKA
NATIONAL WEATHER SERVICE OMAHA NE
800 AM CDT SAT MAY 30 2015

NOTES: SATELLITE DATA IS BEING USED TO AUGMENT CLOUD COVER ABOVE
       12000 FEET.
       "FAIR" INDICATES FEW OR NO CLOUDS BELOW 12,000 FEET WITH NO
       SIGNIFICANT WEATHER AND/OR OBSTRUCTIONS TO VISIBILITY.

  * THESE STATIONS DO NOT REPORT WEATHER SUCH AS RAIN...SNOW OR FOG.

NEZ001>004-019>022-054>056-301400-
NEBRASKA PANHANDLE

CITY           SKY/WX    TMP DP  RH WIND       PRES   REMARKS
SCOTTSBLUFF    CLOUDY    48  46  93 SE7       30.30R
ALLIANCE       FOG       41  40  96 E7        30.31R VSB<1/4
CHADRON        SUNNY     42  40  92 SE6       30.30F
KIMBALL          N/A    N/A N/A N/A MISG        N/A
SIDNEY         CLOUDY    48  44  86 CALM      30.31R
$$

NEZ057>060-069>072-079>082-301400-
SOUTHWEST NEBRASKA

CITY           SKY/WX    TMP DP  RH WIND       PRES   REMARKS
NORTH PLATTE   SUNNY     44  40  85 NW8       30.32R
IMPERIAL       SUNNY     46  41  82 NE8       30.32R
LEXINGTON      MOSUNNY   46  42  86 N12       30.29R
MCCOOK         SUNNY     48  42  80 N12       30.32R
$$

NEZ005>010-023>029-035>040-094-301400-
NORTH CENTRAL NEBRASKA

CITY           SKY/WX    TMP DP  RH WIND       PRES   REMARKS
VALENTINE      SUNNY     44  38  79 NE6       30.34
AINSWORTH      SUNNY     42  40  92 N9        30.33R
BROKEN BOW     SUNNY     46  38  73 N14       30.28R
ORD            SUNNY     45  39  79 N13       30.27R
$$

NEZ041-046>049-061>064-073>077-083>087-301400-
SOUTH CENTRAL NEBRASKA

CITY           SKY/WX    TMP DP  RH WIND       PRES   REMARKS
GRAND ISLAND   PTSUNNY   49  42  77 N18       30.25R
AURORA         PTSUNNY   50  43  78 N14       30.23R
HASTINGS       CLOUDY    49  41  74 N16       30.23S
KEARNEY *      SUNNY     46  37  71 N15       30.27R
$$

NEZ011>018-030>034-042>045-301400-
NORTHEAST NEBRASKA

CITY           SKY/WX    TMP DP  RH WIND       PRES   REMARKS
NORFOLK        CLOUDY    49  42  77 N16G24    30.24R
BLAIR          CLOUDY    51  44  78 N15G22    30.16R
COLUMBUS *     CLOUDY    48  39  71 N15G22    30.24R
FREMONT        CLOUDY    52  45  76 N9G17     30.19R
TEKAMAH        CLOUDY    53  45  74 N23       30.17R
$$

NEZ050>053-065>068-078-088>093-301400-
SOUTHEAST NEBRASKA

CITY           SKY/WX    TMP DP  RH WIND       PRES   REMARKS
LINCOLN        CLOUDY    53  45  74 N16       30.19R
OMAHA EPPLEY   CLOUDY    53  48  83 N15       30.15R
FALLS CITY     CLOUDY    53  49  86 N10       30.12R
NEBRASKA CITY  CLOUDY    52  49  90 N12       30.14R
PLATTSMOUTH    CLOUDY    51  48  88 NW12      30.15R
$$

NEZ044-045-051>053-067-301400-
OMAHA AREA

CITY           SKY/WX    TMP DP  RH WIND       PRES   REMARKS
OMAHA EPPLEY   CLOUDY    53  48  83 N15       30.15R
BLAIR          CLOUDY    51  44  78 N15G22    30.16R
FREMONT        CLOUDY    52  45  76 N9G17     30.19R
OFFUTT AFB     PTSUNNY   53  47  82 NW13      30.14R
PLATTSMOUTH    CLOUDY    51  48  88 NW12      30.15R
WAHOO          CLOUDY    52  45  77 N14G21    30.19R
$$


USA.gov is the U.S. government's official web portal to all federal, state and local government web resources and services.